User: anonymous   Login
Location: Coupvray
(48.8929°N, 2.7967°E)
Time: 08:42:41
(UTC+00:00)
Language:

Meteor 1-5 Rocket - Orbit

View from above orbital plane
View from above orbital plane
View from above satellite
View from above satellite

Ground track
Ground track

The orbit data is extracted from the following two-line orbital elements,

1  4420U 70047B   20272.38689991 +.00000171 +00000-0 +82991-4 0  9996
2  4420 081.2288 240.0921 0088545 078.8705 282.2407 14.12082766587321
Epoch (UTC): 28 September 2020 09:17:08
Eccentricity: 0.0088545
inclination: 81.2288°
perigee height: 788 km
apogee height: 916 km
right ascension of ascending node: 240.0921°
argument of perigee: 78.8705°
revolutions per day: 14.12082766
mean anomaly at epoch: 282.2407°
orbit number at epoch: 58732

The dashed part of the orbit path shows where the satellite is in the earth's shadow,  

DLR